Location: Staunton
(38.1490°N, 79.0720°W)
Time: 02:20:27
(UTC-04:00)

ISS - Pass Details

Date: 11 October 2018
Orbit: 403 x 408 km, 51.6° (Epoch: 21 October)

Event Time Altitude Azimuth Distance (km) Brightness Sun altitude
Rises 20:15:01 0° 303° (WNW) 2,334 1.1 -18.7°
Reaches altitude 10° 20:17:11 10° 295° (WNW) 1,469 0.1 -19.1°
Maximum altitude 20:20:16 38° 225° (SW) 631 -2.6 -19.7°
Enters shadow 20:21:12 31° 185° (S) 745 -2.6 -19.9°
